Tracking 29932 objects as of 4-Dec-2024
HD Live streaming from Space Station
objects crossing your sky now

STARLINK-32287

Track STARLINK-32287 now!
10-day predictions
STARLINK-32287 is classified as:


NORAD ID: 60358
Int'l Code: 2024-138D
Perigee: 454.1 km
Apogee: 454.7 km
Inclination: 53.2 °
Period: 93.5 minutes
Semi major axis: 6825 km
RCS: Unknown
Launch date: August 4, 2024
Source: United States (US)
Launch site: AIR FORCE WESTERN TEST RANGE (AFWTR)
Your satellite tracking list
Your tracking list is empty




NASA's NSSDC Master Catalog

Two Line Element Set (TLE):
1 60358U 24138D   24338.60535325  .00000397  00000-0  19883-4 0  9991
2 60358  53.1689 293.4224 0000452 106.0438 254.0617 15.39623430 19994
Source of the keplerian elements: AFSPC